Visibility
13.9 14.4 14.7 12.7 13.4 12.8 10.9 14.7 15.0 14.7 15.0 15.0 15.0 15.0 15.0 15.0 15.0 15.0 15.0 15.0 3.4 0.7 12.1 15.0 15.0 15.0 15.0 15.0 10.5 15.0 15.0 15.0 15.0 0.0 0.7 0.3 0.1 4.0 15.0 15.0 15.0 11.8 12.2 8.7 0.4 0.1 0.3 15.0 14.4 15.0 15.0 15.0 15.0 15.0
14.8 13.4 10.0 11.9 13.8 11.7 8.1 9.9 11.7 14.4 15.0 15.0 15.0 15.0 15.0 14.6 15.0 14.8 15.0 15.0 15.0 2.4 15.0 15.0 15.0 15.0 15.0 15.0 15.0 15.0 14.1 15.0 0.5 0.1 1.7 0.6 0.1 15.0 13.3 15.0 15.0 15.0 15.0 14.4 15.0 15.0 15.0 15.0 15.0 15.0 15.0 15.0 15.0 15.0
11.4 11.5 14.3 14.8 12.4 9.9 7.8 14.8 15.0 15.0 15.0 15.0 15.0 15.0 15.0 15.0 14.8 8.8 15.0 15.0 13.6 0.2 2.9 1.6 12.2 15.0 15.0 15.0 15.0 6.3 15.0 15.0 4.5 3.5 0.0 0.1 2.1 15.0 15.0 15.0 15.0 15.0 15.0 15.0 15.0 15.0 15.0 15.0 15.0 15.0 15.0 15.0 15.0 15.0
15.0 15.0 15.0 15.0 12.3 15.0 15.0 15.0 15.0 15.0 15.0 15.0 15.0 15.0 15.0 15.0 15.0 15.0 15.0 12.3 3.0 0.0 0.0 10.7 15.0 15.0 15.0 15.0 15.0 15.0 15.0 15.0 15.0 0.1 0.0 0.1 0.7 15.0 15.0 15.0 15.0 15.0 15.0 15.0 15.0 15.0 15.0 15.0 15.0 15.0 15.0 15.0 15.0 15.0
15.0 15.0 15.0 15.0 15.0 15.0 15.0 15.0 15.0 15.0 15.0 15.0 15.0 15.0 15.0 15.0 9.5 9.9 8.8 0.5 0.2 0.1 0.1 4.6 10.2 15.0 15.0 15.0 15.0 15.0 10.3 7.6 2.0 0.1 0.0 0.1 2.7 15.0 15.0 15.0 15.0 15.0 15.0 15.0 15.0 15.0 15.0 15.0 15.0 15.0 15.0 15.0 15.0 2.2
15.0 15.0 15.0 15.0 15.0 15.0 15.0 15.0 15.0 15.0 15.0 15.0 15.0 15.0 5.7 4.0 3.1 0.2 0.0 6.4 15.0 12.3 0.1 0.2 15.0 0.5 3.3 3.0 0.2 0.1 6.3 0.9 0.0 0.0 1.0 8.5 15.0 7.8 2.0 15.0 15.0 15.0 15.0 15.0 15.0 15.0 15.0 15.0 15.0 15.0 15.0 15.0 15.0 15.0
14.6 15.0 15.0 15.0 15.0 15.0 15.0 15.0 15.0 15.0 15.0 15.0 5.9 4.3 3.0 14.7 14.7 0.1 0.6 15.0 15.0 15.0 0.0 0.2 0.7 0.1 3.4 0.5 0.0 0.0 0.1 0.0 0.6 3.3 15.0 15.0 15.0 15.0 15.0 10.4 15.0 15.0 15.0 15.0 15.0 15.0 15.0 15.0 15.0 15.0 15.0 15.0 15.0 15.0
14.6 15.0 15.0 15.0 15.0 15.0 15.0 15.0 15.0 15.0 15.0 7.4 10.2 9.8 11.1 13.0 1.4 0.1 3.5 5.4 7.8 0.0 0.0 0.1 0.1 0.2 15.0 1.4 0.2 0.0 0.1 3.5 9.1 15.0 15.0 15.0 15.0 15.0 15.0 15.0 15.0 15.0 15.0 15.0 15.0 15.0 15.0 15.0 15.0 15.0 15.0 15.0 15.0 15.0
14.9 15.0 15.0 15.0 15.0 15.0 15.0 15.0 15.0 15.0 15.0 8.5 15.0 15.0 15.0 14.0 7.4 15.0 15.0 12.2 15.0 2.4 11.6 15.0 11.9 11.7 15.0 11.0 15.0 14.9 13.6 15.0 3.8 14.9 15.0 15.0 15.0 15.0 15.0 15.0 15.0 15.0 15.0 15.0 15.0 15.0 15.0 15.0 15.0 8.6 13.6 15.0 15.0 15.0
15.0 15.0 15.0 15.0 15.0 15.0 15.0 15.0 15.0 15.0 15.0 15.0 15.0 15.0 14.6 15.0 15.0 15.0 15.0 15.0 15.0 15.0 14.8 15.0 15.0 14.5 15.0 15.0 15.0 15.0 15.0 1.4 5.3 4.3 15.0 9.6 15.0 15.0 15.0 15.0 15.0 15.0 15.0 15.0 15.0 15.0 15.0 6.4 15.0 15.0 15.0 15.0 15.0 15.0
15.0 15.0 15.0 15.0 15.0 15.0 15.0 15.0 15.0 15.0 15.0 15.0 15.0 15.0 15.0 15.0 15.0 15.0 15.0 15.0 15.0 15.0 15.0 15.0 15.0 5.2 15.0 15.0 15.0 15.0 12.5 12.6 7.5 15.0 13.3 14.8 5.2 15.0 15.0 15.0 15.0 15.0 15.0 15.0 15.0 15.0 15.0 15.0 15.0 15.0 15.0 15.0 15.0 15.0
15.0 15.0 15.0 15.0 15.0 15.0 15.0 15.0 15.0 15.0 9.9 11.4 4.4 15.0 15.0 15.0 15.0 15.0 11.7 15.0 15.0 15.0 15.0 15.0 15.0 15.0 6.5 15.0 14.3 15.0 15.0 13.9 15.0 15.0 8.3 6.8 15.0 15.0 15.0 15.0 15.0 15.0 15.0 15.0 15.0 15.0 15.0 15.0 15.0 15.0 15.0 15.0 15.0 15.0
15.0 15.0 15.0 15.0 15.0 15.0 15.0 15.0 15.0 15.0 15.0 15.0 15.0 15.0 14.2 15.0 15.0 15.0 9.7 15.0 7.3 15.0 8.9 15.0 15.0 8.9 15.0 15.0 7.4 0.8 2.5 6.3 13.8 1.5 7.4 14.9 3.4 15.0 15.0 15.0 15.0 15.0 15.0 15.0 15.0 15.0 15.0 15.0 15.0 15.0 15.0 10.8 15.0 15.0
15.0 15.0 15.0 15.0 15.0 15.0 15.0 15.0 15.0 15.0 15.0 3.5 9.3 0.6 7.7 8.9 7.5 15.0 2.2 0.8 2.1 0.0 0.1 0.0 0.9 14.8 15.0 1.7 5.3 15.0 14.7 11.6 2.0 0.2 15.0 5.6 14.4 15.0 15.0 15.0 15.0 2.7 15.0 13.5 15.0 15.0 15.0 15.0 8.7 14.0 9.9 13.7 15.0 12.4
15.0 15.0 15.0 15.0 15.0 15.0 15.0 15.0 15.0 15.0 0.1 0.1 0.4 9.4 8.9 6.7 5.6 0.2 0.1 0.3 12.1 1.7 0.0 0.0 0.0 0.1 0.5 13.6 5.4 11.5 0.1 0.5 9.0 15.0 9.8 10.3 15.0 14.0 0.4 0.9 15.0 15.0 15.0 6.3 5.5 12.2 13.5 15.0 15.0 5.5 4.7 12.6 10.7 4.7
15.0 15.0 15.0 15.0 15.0 15.0 15.0 15.0 15.0 8.0 0.0 0.0 0.1 0.1 0.4 0.5 0.2 0.5 13.2 15.0 0.1 0.0 0.0 0.0 0.1 0.1 0.7 15.0 0.4 11.3 15.0 15.0 15.0 7.2 0.4 15.0 15.0 15.0 15.0 15.0 15.0 13.6 14.8 6.8 7.2 8.4 6.1 8.4 10.2 4.9 13.0 5.0 4.0 4.2
15.0 15.0 15.0 15.0 15.0 15.0 15.0 12.4 0.0 0.0 0.0 0.0 0.1 2.1 2.4 8.5 13.9 4.8 15.0 13.2 14.4 0.0 0.2 15.0 15.0 14.8 15.0 15.0 15.0 15.0 15.0 15.0 1.0 0.2 1.5 15.0 15.0 15.0 15.0 15.0 15.0 15.0 15.0 15.0 15.0 15.0 14.2 15.0 15.0 15.0 10.3 2.7 2.6 1.0
15.0 15.0 15.0 15.0 15.0 15.0 15.0 2.5 0.0 0.0 0.2 14.9 15.0 11.1 0.2 15.0 12.6 15.0 0.6 6.4 4.1 0.0 12.8 15.0 15.0 15.0 15.0 15.0 15.0 14.4 12.9 12.4 0.1 1.6 0.1 5.1 15.0 15.0 15.0 15.0 15.0 15.0 15.0 15.0 15.0 15.0 15.0 15.0 15.0 14.1 13.4 7.5 4.4 0.7
15.0 15.0 15.0 15.0 15.0 4.0 0.0 0.1 0.1 0.0 9.5 15.0 14.6 13.9 15.0 15.0 15.0 8.9 15.0 15.0 15.0 7.1 1.6 15.0 15.0 15.0 15.0 13.2 2.2 9.0 0.1 13.0 0.3 0.5 0.1 15.0 15.0 15.0 15.0 9.2 15.0 15.0 15.0 15.0 14.9 15.0 15.0 15.0 15.0 15.0 14.2 15.0 5.0 1.5
15.0 15.0 15.0 15.0 15.0 5.1 0.0 0.5 10.8 0.5 15.0 15.0 14.5 10.8 15.0 15.0 15.0 15.0 15.0 15.0 15.0 0.0 11.5 15.0 15.0 15.0 13.0 15.0 14.3 13.9 10.5 15.0 4.1 14.5 0.1 0.2 1.0 0.6 0.7 4.7 15.0 15.0 15.0 15.0 10.8 15.0 15.0 7.3 15.0 15.0 15.0 15.0 5.3 3.1
15.0 15.0 15.0 15.0 15.0 15.0 15.0 14.8 15.0 15.0 15.0 15.0 15.0 15.0 15.0 15.0 15.0 15.0 15.0 15.0 1.2 5.5 14.9 15.0 13.9 14.8 0.1 11.2 15.0 15.0 15.0 15.0 14.9 15.0 15.0 0.2 0.4 0.4 0.4 13.9 15.0 15.0 14.5 6.5 2.7 4.4 8.2 14.8 14.9 15.0 15.0 15.0 15.0 5.1
15.0 15.0 15.0 15.0 15.0 12.5 0.0 7.3 15.0 15.0 15.0 15.0 15.0 15.0 13.8 5.5 6.9 15.0 15.0 14.9 10.0 15.0 15.0 14.9 13.8 0.4 0.5 15.0 15.0 14.8 15.0 15.0 15.0 15.0 11.9 12.2 0.4 0.2 0.3 1.5 2.3 1.6 1.9 4.8 15.0 9.8 15.0 15.0 13.8 8.9 15.0 14.4 15.0 7.9
15.0 15.0 15.0 15.0 13.9 15.0 14.6 15.0 15.0 15.0 15.0 15.0 15.0 14.6 12.4 9.9 15.0 15.0 15.0 15.0 15.0 15.0 13.8 15.0 15.0 15.0 15.0 15.0 15.0 15.0 15.0 15.0 15.0 15.0 15.0 15.0 15.0 15.0 1.8 1.8 6.6 3.1 0.8 1.1 13.2 7.3 9.7 15.0 4.5 1.0 2.6 1.4 1.7 2.2
15.0 15.0 15.0 15.0 15.0 15.0 15.0 15.0 15.0 15.0 15.0 15.0 15.0 15.0 14.9 4.5 15.0 13.1 12.3 15.0 15.0 8.1 14.4 15.0 15.0 15.0 15.0 15.0 15.0 15.0 15.0 15.0 15.0 15.0 15.0 9.4 0.4 0.3 3.6 0.7 1.1 9.3 15.0 15.0 1.0 1.2 0.9 0.3 1.4 0.5 0.5 0.6 0.8 1.5
15.0 15.0 15.0 15.0 14.3 3.3 0.1 1.3 6.4 14.3 14.4 15.0 9.0 13.4 15.0 15.0 0.8 4.6 15.0 15.0 15.0 15.0 6.7 9.5 15.0 15.0 15.0 15.0 15.0 15.0 15.0 15.0 15.0 13.3 1.4 15.0 1.6 0.3 0.3 0.3 0.2 0.7 4.0 0.9 0.3 0.4 0.5 1.0 0.5 0.3 0.3 0.3 0.6 0.7
15.0 15.0 1.0 15.0 4.8 2.9 1.2 3.6 4.9 7.8 11.6 14.7 15.0 11.9 13.6 1.3 1.2 8.8 15.0 14.0 15.0 15.0 15.0 15.0 15.0 15.0 15.0 15.0 15.0 15.0 15.0 15.0 15.0 15.0 15.0 15.0 15.0 7.8 2.4 3.0 1.1 1.0 2.4 13.0 4.3 0.5 0.4 0.7 0.6 0.4 0.3 0.2 0.3 0.4
1.7 14.9 15.0 15.0 15.0 15.0 15.0 9.8 15.0 14.1 11.7 11.3 9.8 9.5 15.0 10.2 8.7 15.0 15.0 12.9 15.0 15.0 6.3 14.8 15.0 15.0 15.0 15.0 15.0 15.0 15.0 15.0 15.0 15.0 15.0 15.0 15.0 15.0 12.7 3.7 5.8 15.0 15.0 15.0 15.0 15.0 1.9 0.5 1.1 1.0 0.5 0.3 0.8 2.0
13.8 15.0 7.9 15.0 11.7 15.0 15.0 6.8 9.4 2.1 15.0 15.0 10.9 1.0 14.1 15.0 15.0 15.0 15.0 1.3 6.0 0.2 0.9 0.5 4.0 15.0 15.0 15.0 15.0 15.0 10.8 14.3 15.0 15.0 15.0 0.5 0.2 2.3 15.0 15.0 15.0 15.0 15.0 15.0 15.0 15.0 14.8 1.0 0.4 1.4 1.2 2.1 5.2 0.8
0.5 13.8 15.0 13.9 7.6 10.9 13.9 15.0 15.0 15.0 15.0 15.0 12.1 5.5 9.8 15.0 13.1 11.9 14.8 15.0 7.4 7.3 6.1 6.1 0.0 0.2 0.1 6.9 13.3 15.0 13.4 8.7 0.2 0.3 13.9 0.1 0.2 0.3 0.1 5.9 12.2 15.0 15.0 15.0 15.0 15.0 15.0 10.1 2.8 2.2 2.2 5.9 3.7 0.5
6.0 8.9 9.8 2.8 3.8 8.1 15.0 15.0 0.7 8.7 2.8 15.0 14.2 12.4 15.0 15.0 13.7 5.4 9.6 5.8 9.6 9.9 15.0 11.8 3.8 0.1 0.3 0.1 0.0 0.1 1.9 0.2 7.9 15.0 15.0 10.2 1.0 9.7 0.1 9.5 14.1 15.0 15.0 15.0 8.3 5.3 4.0 0.6 0.4 0.4 1.0 0.7 0.4 0.5
0.5 9.9 11.2 4.3 3.9 15.0 15.0 3.2 3.2 4.0 4.1 7.7 2.3 10.5 10.6 7.6 13.0 2.9 0.1 6.6 15.0 5.2 6.4 14.4 3.3 7.0 5.6 0.5 0.1 0.1 0.1 2.1 0.2 0.2 2.1 5.5 14.5 15.0 15.0 15.0 15.0 15.0 15.0 15.0 3.3 2.0 1.2 0.8 1.5 3.9 1.4 0.9 1.2 2.1
5.7 14.8 6.9 4.4 15.0 15.0 4.5 4.8 5.7 6.4 4.0 0.1 0.1 0.2 0.4 4.0 12.0 15.0 5.7 3.9 0.3 3.8 5.4 15.0 15.0 15.0 15.0 15.0 15.0 15.0 15.0 15.0 15.0 15.0 10.6 0.1 0.3 14.2 15.0 15.0 6.0 1.0 2.3 1.1 0.8 0.9 0.8 2.7 1.6 1.7 2.2 1.1 0.9 0.8
1.9 1.5 3.4 2.2 1.4 14.1 11.1 12.0 4.4 8.1 9.2 4.1 7.4 1.5 0.6 2.1 10.9 12.4 15.0 15.0 2.3 6.5 5.8 6.7 15.0 15.0 15.0 15.0 15.0 15.0 15.0 15.0 15.0 15.0 15.0 14.4 13.6 12.5 1.1 0.8 0.3 0.1 0.3 0.4 0.4 0.7 0.7 1.6 5.2 6.1 3.3 2.5 2.8 3.5